{"data":{"norad_id":60053,"epoch":"2026-09-21T21:48:03.871296Z","epoch_age_seconds":55638,"freshness":"FRESH","line1":"1 60053U 24112R   26264.90837814 -.00000003  00000+0  11041-4 0  9998","line2":"2 60053  53.1595 244.8068 0001182  89.8253 270.2885 15.34388414128669","mean_motion":15.34388414,"eccentricity":0.0001182,"inclination_deg":53.1595,"raan_deg":244.8068,"arg_perigee_deg":89.8253,"mean_anomaly_deg":270.2885,"bstar":1.1041e-5,"rev_number":12866,"period_min":93.848466715547,"perigee_km":461.92908507067,"apogee_km":463.54626784419,"semimajor_km":6840.8746764574,"source":"CELESTRAK","updated_at":"2026-09-22T09:00:49.144701Z"}}